Regional Weather Roundup
Issued by NWS

Home | Current Version | Previous Version | Graphics & Text | Print | Product List | Glossary On
Versions: 1 2 3 4 5 6 7 8 9 10 11 12 13 14 15 16 17 18 19 20 21 22 23 24 25 26 27 28 29 30 31 32 33 34 35 36 37 38 39 40 41 42 43 44 45 46 47 48 49 50
000
ASUS45 KABQ 242101
RWRNM
NEW MEXICO REGIONAL WEATHER ROUNDUP
NATIONAL WEATHER SERVICE ALBUQUERQUE NM
300 PM MDT SUN JUL 24 2016

NOTE: "FAIR" MEANS FEW OR NO CLOUDS BELOW 12,000 FEET AGL WITH NO
       SIGNIFICANT WEATHER OR OBSTRUCTIONS TO VISION.

      THIS PRODUCT IS RELEASED AS TWO VERSIONS.  ONE VERSION NEAR
      THE TOP OF THE HOUR CONTAINING PRELIMINARY DATA FROM ALBUQUERQUE
      AND OTHER STATIONS.  A FINAL VERSION WITH ADDITIONAL DATA IS
      ISSUED ABOUT 10 MINUTES AFTER THE HOUR.

NMZ501-503-504-510>518-242200-
NORTHWEST PLATEAU/NORTHCENTRAL MOUNTAINS

CITY           SKY/WX    TMP DP  RH WIND       PRES   REMARKS
FARMINGTON     FAIR      96  36  12 SW14      30.10F
LOS ALAMOS     FAIR      86  34  15 W15G23    30.29F
SANTA FE       PTSUNNY   89  44  20 NW17      30.19S THUNDER
TAOS           FAIR      81  43  26 N22G29    30.30R
ANGEL FIRE     LGT RAIN  70  47  42 S13       30.42R

$$
NMZ402-403-502-505>509-242200-
WESTCENTRAL MOUNTAINS/SOUTHWEST MOUNTAINS

CITY           SKY/WX    TMP DP  RH WIND       PRES   REMARKS
GALLUP         FAIR      89  41  18 NW9       30.21S
GRANTS         FAIR      87  36  16 W16       30.23R
SILVER CITY    FAIR      93  43  17 N28G36    30.11S

$$
NMZ407-409-411-412-242200-
SOUTHERN DESERTS

CITY           SKY/WX    TMP DP  RH WIND       PRES   REMARKS
LORDSBURG      FAIR      99  50  19 W15       30.01F HX  95
DEMING         FAIR     103  45  14 SW8       29.97F HX  99
LAS CRUCES     FAIR      99  40  13 E7        30.01F
ALAMOGORDO     FAIR     104  45  13 S13G23    29.97F HX 100
T OR C         FAIR     100  40  12 VRB3      30.01F HX  95

$$
NMZ519>523-242200-
CENTRAL VALLEYS/CENTRAL HIGHLANDS

CITY           SKY/WX    TMP DP  RH WIND       PRES   REMARKS
ALBUQUERQUE    PTSUNNY   96  44  16 E24       30.10S THUNDER
DOUBLE EAGLE   PTSUNNY   97  46  17 SE12      30.12F
MORIARTY ARPT  PTSUNNY   83  39  21 NW15G23   30.22S THUNDER
CLINES CORNERS FAIR      88  44  21 SE12G18   30.27F
BELEN          PTSUNNY   99  37  11 E13       30.07F
SOCORRO        FAIR     104  42  12 E25G31    30.04S HX  99

$$
NMZ524>526-539-540-242200-
SOUTHCENTRAL MOUNTAINS

CITY           SKY/WX    TMP DP  RH WIND       PRES   REMARKS
RUIDOSO        NOT AVBL

$$
NMZ527>531-242200-
NORTHEAST HIGHLANDS/NORTHEAST PLAINS

CITY           SKY/WX    TMP DP  RH WIND       PRES   REMARKS
LAS VEGAS      FAIR      80  47  31 NW25G31   30.28F
RATON          PTSUNNY   82  48  30 E22       30.20S THUNDER
CLAYTON        FAIR      95  52  23 VRB6      30.12F

$$
NMZ532>537-242200-
EASTCENTRAL PLAINS

CITY           SKY/WX    TMP DP  RH WIND       PRES   REMARKS
TUCUMCARI      FAIR     100  47  16 VRB6      30.01F HX  96
CANNON AFB     FAIR      96  52  22 SE15G21   30.07F
CLOVIS AIRPORT FAIR      97  54  23 E9        30.08F

$$
NMZ028-029-538-242200-
SOUTHEAST PLAINS

CITY           SKY/WX    TMP DP  RH WIND       PRES   REMARKS
ROSWELL        FAIR     103  44  13 MISG      29.98F HX  98
ARTESIA        FAIR     100  48  17 E12       29.98F HX  97
CARLSBAD       PTSUNNY  102  44  14 NE7       29.95F HX  98
HOBBS          MOSUNNY   95  50  21 E13G21    30.02F


$$



USA.gov is the U.S. government's official web portal to all federal, state and local government web resources and services.